sat.trackr.live / text

‹ back to catalog

STARLINK-30416

NORAD 57847 · 2023-141H

PAYLOAD ACTIVE UNKNOWN

§ Identity

Operator
Country
US
Launch date
2023-09-12
Launch site
AFWTR
Launch vehicle
Mass (kg)
RCS (m²)

Purposes: comms

External: N2YO · Heavens-Above · Gunter

§ Orbital elements

Epoch: 2026-09-20T08:57:11.234880Z

Period
94.01 min
Inclination
53.1596°
Eccentricity
0.0001473
Mean motion
15.31708864 rev/d
Perigee alt
469.7 km
Apogee alt
471.7 km
Semi-major
6,848.9 km
B*
5.5406e-5
RAAN
98.4688°
Arg perigee
129.3407°
Mean anomaly
230.7725°
Rev number
17,015

§ Raw data

STARLINK-304161 57847U 23141H   26263.37304670  .00001355  00000+0  55406-4 0  99982 57847  53.1596  98.4688 0001473 129.3407 230.7725 15.31708864170159

JSON: /api/v1/satellites/57847 · /tle

For live sub-satellite position, see the globe view (requires WebGL).

§ Visibility from observer

Set your observer location to see the next 7 days of passes ≥ 10°. The values pass through the URL so the page stays shareable.

No JS? Fill the form by hand. The geolocation button needs JavaScript.